Time,TemperatureF,DewpointF,PressureIn,WindDirection,WindDirectionDegrees,WindSpeedMPH,WindSpeedGustMPH,Humidity,HourlyPrecipIn,Conditions,Clouds,dailyrainin,SoftwareType,DateUTC
2013-04-07 00:10:00,71.6,64.0,30.07,SE,128,0.0,-999.0,76,-99.99,,,0.00,weatherlink.com 1.10,2013-04-07 04:10:00,
2013-04-07 00:25:00,71.4,64.0,30.07,East,95,2.0,-999.0,76,-99.99,,,0.00,weatherlink.com 1.10,2013-04-07 04:25:00,
2013-04-07 00:40:00,71.3,63.0,30.07,ESE,119,1.0,-999.0,76,-99.99,,,0.00,weatherlink.com 1.10,2013-04-07 04:40:00,
2013-04-07 00:55:00,71.3,63.0,30.06,ENE,75,2.0,-999.0,76,-99.99,,,0.00,weatherlink.com 1.10,2013-04-07 04:55:00,
2013-04-07 01:10:00,71.2,63.0,30.05,East,90,2.0,-999.0,76,-99.99,,,0.00,weatherlink.com 1.10,2013-04-07 05:10:00,
2013-04-07 01:25:00,71.1,63.0,30.05,ENE,67,4.0,-999.0,76,-99.99,,,0.00,weatherlink.com 1.10,2013-04-07 05:25:00,
2013-04-07 01:40:00,71.0,63.0,30.05,ENE,69,3.0,-999.0,76,-99.99,,,0.00,weatherlink.com 1.10,2013-04-07 05:40:00,
2013-04-07 01:55:00,71.1,63.0,30.04,NE,49,2.0,-999.0,76,-99.99,,,0.00,weatherlink.com 1.10,2013-04-07 05:55:00,
2013-04-07 04:02:00,70.9,63.0,30.02,ENE,62,0.0,-999.0,76,-99.99,,,0.00,weatherlink.com 1.10,2013-04-07 08:02:00,
2013-04-07 04:42:00,70.9,63.0,30.01,ENE,63,2.0,-999.0,75,-99.99,,,0.00,weatherlink.com 1.10,2013-04-07 08:42:00,
2013-04-07 04:57:00,70.9,63.0,30.01,East,101,1.0,-999.0,76,-99.99,,,0.00,weatherlink.com 1.10,2013-04-07 08:57:00,
2013-04-07 05:11:00,70.0,64.0,30.02,East,100,1.0,-999.0,80,-99.99,,,0.00,weatherlink.com 1.10,2013-04-07 09:11:00,
2013-04-07 05:26:00,70.0,63.0,30.02,ESE,108,0.0,-999.0,79,-99.99,,,0.00,weatherlink.com 1.10,2013-04-07 09:26:00,
2013-04-07 05:41:00,70.4,64.0,30.02,East,81,3.0,-999.0,79,-99.99,,,0.00,weatherlink.com 1.10,2013-04-07 09:41:00,
2013-04-07 05:57:00,70.0,64.0,30.02,East,91,0.0,-999.0,80,-99.99,,,0.00,weatherlink.com 1.10,2013-04-07 09:57:00,
2013-04-07 06:12:00,69.9,64.0,30.03,SSW,205,2.0,-999.0,80,-99.99,,,0.00,weatherlink.com 1.10,2013-04-07 10:12:00,
2013-04-07 06:26:00,70.2,63.0,30.03,SSE,165,0.0,-999.0,78,-99.99,,,0.00,weatherlink.com 1.10,2013-04-07 10:26:00,
2013-04-07 06:57:00,70.4,63.0,30.04,ESE,103,1.0,-999.0,78,-99.99,,,0.00,weatherlink.com 1.10,2013-04-07 10:57:00,
2013-04-07 07:12:00,70.1,63.0,30.05,ESE,117,0.0,-999.0,78,-99.99,,,0.00,weatherlink.com 1.10,2013-04-07 11:12:00,
2013-04-07 07:27:00,70.1,63.0,30.05,ESE,112,2.0,-999.0,77,-99.99,,,0.00,weatherlink.com 1.10,2013-04-07 11:27:00,
2013-04-07 07:42:00,70.3,62.0,30.06,East,81,0.0,-999.0,76,-99.99,,,0.00,weatherlink.com 1.10,2013-04-07 11:42:00,
2013-04-07 07:56:00,70.5,63.0,30.07,East,93,0.0,-999.0,76,-99.99,,,0.00,weatherlink.com 1.10,2013-04-07 11:56:00,
2013-04-07 08:11:00,71.4,64.0,30.07,East,84,0.0,-999.0,77,-99.99,,,0.00,weatherlink.com 1.10,2013-04-07 12:11:00,
2013-04-07 08:27:00,71.7,64.0,30.08,NE,53,1.0,-999.0,76,-99.99,,,0.00,weatherlink.com 1.10,2013-04-07 12:27:00,
2013-04-07 08:42:00,72.0,64.0,30.08,East,82,1.0,-999.0,76,-99.99,,,0.00,weatherlink.com 1.10,2013-04-07 12:42:00,
2013-04-07 08:57:00,72.7,64.0,30.09,ENE,73,3.0,-999.0,74,-99.99,,,0.00,weatherlink.com 1.10,2013-04-07 12:57:00,
2013-04-07 09:12:00,73.5,64.0,30.09,NE,55,1.0,-999.0,73,-99.99,,,0.00,weatherlink.com 1.10,2013-04-07 13:12:00,
2013-04-07 09:26:00,74.6,64.0,30.09,SE,127,2.0,-999.0,70,-99.99,,,0.00,weatherlink.com 1.10,2013-04-07 13:26:00,
2013-04-07 09:42:00,75.1,65.0,30.10,ENE,64,1.0,-999.0,70,-99.99,,,0.00,weatherlink.com 1.10,2013-04-07 13:42:00,
2013-04-07 09:57:00,74.9,64.0,30.11,East,90,9.0,-999.0,68,-99.99,,,0.00,weatherlink.com 1.10,2013-04-07 13:57:00,
2013-04-07 10:11:00,75.1,64.0,30.11,ESE,118,1.0,-999.0,68,-99.99,,,0.00,weatherlink.com 1.10,2013-04-07 14:11:00,
2013-04-07 10:27:00,74.9,65.0,30.12,ENE,74,4.0,-999.0,70,-99.99,,,0.00,weatherlink.com 1.10,2013-04-07 14:27:00,
2013-04-07 10:42:00,75.2,64.0,30.12,ESE,112,0.0,-999.0,69,-99.99,,,0.00,weatherlink.com 1.10,2013-04-07 14:42:00,
2013-04-07 10:57:00,75.5,65.0,30.12,SE,141,2.0,-999.0,70,-99.99,,,0.00,weatherlink.com 1.10,2013-04-07 14:57:00,
2013-04-07 11:12:00,75.6,64.0,30.12,East,88,2.0,-999.0,68,-99.99,,,0.00,weatherlink.com 1.10,2013-04-07 15:12:00,
2013-04-07 11:27:00,75.5,64.0,30.12,ENE,69,5.0,-999.0,68,-99.99,,,0.00,weatherlink.com 1.10,2013-04-07 15:27:00,
2013-04-07 11:42:00,75.7,64.0,30.12,NE,51,6.0,-999.0,67,-99.99,,,0.00,weatherlink.com 1.10,2013-04-07 15:42:00,
2013-04-07 11:57:00,76.4,64.0,30.12,ESE,103,5.0,-999.0,66,-99.99,,,0.00,weatherlink.com 1.10,2013-04-07 15:57:00,
2013-04-07 12:12:00,76.8,64.0,30.12,East,92,9.0,-999.0,65,-99.99,,,0.00,weatherlink.com 1.10,2013-04-07 16:12:00,
2013-04-07 12:27:00,76.3,64.0,30.12,SE,146,5.0,-999.0,66,-99.99,,,0.00,weatherlink.com 1.10,2013-04-07 16:27:00,
2013-04-07 12:42:00,77.2,65.0,30.12,ESE,105,1.0,-999.0,65,-99.99,,,0.00,weatherlink.com 1.10,2013-04-07 16:42:00,
2013-04-07 12:57:00,76.2,64.0,30.11,East,79,3.0,-999.0,67,-99.99,,,0.00,weatherlink.com 1.10,2013-04-07 16:57:00,
2013-04-07 13:12:00,76.6,64.0,30.11,ENE,67,4.0,-999.0,66,-99.99,,,0.00,weatherlink.com 1.10,2013-04-07 17:12:00,
2013-04-07 13:27:00,75.7,64.0,30.11,SE,140,2.0,-999.0,68,-99.99,,,0.00,weatherlink.com 1.10,2013-04-07 17:27:00,
2013-04-07 13:43:00,75.3,64.0,30.11,ESE,105,2.0,-999.0,68,-99.99,,,0.00,weatherlink.com 1.10,2013-04-07 17:43:00,
2013-04-07 13:57:00,75.3,64.0,30.10,SSW,198,2.0,-999.0,68,-99.99,,,0.00,weatherlink.com 1.10,2013-04-07 17:57:00,
2013-04-07 14:12:00,76.5,64.0,30.10,South,173,7.0,-999.0,66,-99.99,,,0.00,weatherlink.com 1.10,2013-04-07 18:12:00,
2013-04-07 14:42:00,76.4,63.0,30.09,ESE,121,6.0,-999.0,64,-99.99,,,0.00,weatherlink.com 1.10,2013-04-07 18:42:00,
2013-04-07 14:57:00,75.9,64.0,30.08,ESE,103,4.0,-999.0,66,-99.99,,,0.00,weatherlink.com 1.10,2013-04-07 18:57:00,
2013-04-07 15:12:00,75.9,64.0,30.08,East,81,5.0,-999.0,66,-99.99,,,0.00,weatherlink.com 1.10,2013-04-07 19:12:00,
2013-04-07 15:27:00,76.8,64.0,30.08,ESE,115,12.0,-999.0,64,-99.99,,,0.00,weatherlink.com 1.10,2013-04-07 19:27:00,
2013-04-07 15:42:00,76.0,63.0,30.07,ENE,69,2.0,-999.0,64,-99.99,,,0.00,weatherlink.com 1.10,2013-04-07 19:42:00,
2013-04-07 15:57:00,77.0,63.0,30.07,SSE,160,1.0,-999.0,63,-99.99,,,0.00,weatherlink.com 1.10,2013-04-07 19:57:00,
2013-04-07 16:11:00,76.6,63.0,30.07,SE,134,5.0,-999.0,63,-99.99,,,0.00,weatherlink.com 1.10,2013-04-07 20:11:00,
2013-04-07 16:27:00,76.3,63.0,30.07,ESE,117,1.0,-999.0,63,-99.99,,,0.00,weatherlink.com 1.10,2013-04-07 20:27:00,
2013-04-07 16:41:00,76.5,63.0,30.07,ESE,116,4.0,-999.0,63,-99.99,,,0.00,weatherlink.com 1.10,2013-04-07 20:41:00,
2013-04-07 16:57:00,76.5,63.0,30.07,ESE,108,5.0,-999.0,63,-99.99,,,0.00,weatherlink.com 1.10,2013-04-07 20:57:00,
2013-04-07 17:12:00,76.4,63.0,30.07,NE,44,5.0,-999.0,64,-99.99,,,0.00,weatherlink.com 1.10,2013-04-07 21:12:00,
2013-04-07 17:42:00,75.6,63.0,30.07,East,88,4.0,-999.0,66,-99.99,,,0.00,weatherlink.com 1.10,2013-04-07 21:42:00,
2013-04-07 17:57:00,75.5,63.0,30.07,ESE,112,5.0,-999.0,66,-99.99,,,0.00,weatherlink.com 1.10,2013-04-07 21:57:00,
2013-04-07 18:12:00,75.7,63.0,30.07,East,86,2.0,-999.0,65,-99.99,,,0.00,weatherlink.com 1.10,2013-04-07 22:12:00,
2013-04-07 18:27:00,76.2,64.0,30.07,South,179,1.0,-999.0,65,-99.99,,,0.00,weatherlink.com 1.10,2013-04-07 22:27:00,
2013-04-07 18:42:00,75.3,63.0,30.07,East,93,6.0,-999.0,65,-99.99,,,0.00,weatherlink.com 1.10,2013-04-07 22:42:00,
2013-04-07 18:57:00,75.0,63.0,30.06,ENE,72,6.0,-999.0,66,-99.99,,,0.00,weatherlink.com 1.10,2013-04-07 22:57:00,
2013-04-07 19:12:00,74.7,63.0,30.07,ENE,75,1.0,-999.0,66,-99.99,,,0.00,weatherlink.com 1.10,2013-04-07 23:12:00,
2013-04-07 19:27:00,74.3,63.0,30.07,East,98,0.0,-999.0,67,-99.99,,,0.00,weatherlink.com 1.10,2013-04-07 23:27:00,
2013-04-07 19:42:00,73.7,62.0,30.06,ENE,74,4.0,-999.0,68,-99.99,,,0.00,weatherlink.com 1.10,2013-04-07 23:42:00,
2013-04-07 19:57:00,73.4,63.0,30.07,ESE,123,1.0,-999.0,69,-99.99,,,0.00,weatherlink.com 1.10,2013-04-07 23:57:00,
2013-04-07 20:12:00,73.2,63.0,30.07,ESE,111,0.0,-999.0,70,-99.99,,,0.00,weatherlink.com 1.10,2013-04-08 00:12:00,
2013-04-07 20:27:00,72.8,62.0,30.07,SE,134,2.0,-999.0,70,-99.99,,,0.00,weatherlink.com 1.10,2013-04-08 00:27:00,
2013-04-07 20:42:00,72.7,63.0,30.07,SW,234,0.0,-999.0,71,-99.99,,,0.00,weatherlink.com 1.10,2013-04-08 00:42:00,
2013-04-07 20:57:00,72.4,63.0,30.07,SSE,149,2.0,-999.0,71,-99.99,,,0.00,weatherlink.com 1.10,2013-04-08 00:57:00,
2013-04-07 21:12:00,72.2,63.0,30.08,ESE,109,1.0,-999.0,72,-99.99,,,0.00,weatherlink.com 1.10,2013-04-08 01:12:00,
2013-04-07 21:27:00,71.9,62.0,30.08,East,89,3.0,-999.0,72,-99.99,,,0.00,weatherlink.com 1.10,2013-04-08 01:27:00,
2013-04-07 21:42:00,71.9,62.0,30.09,SSE,148,0.0,-999.0,72,-99.99,,,0.00,weatherlink.com 1.10,2013-04-08 01:42:00,
2013-04-07 21:58:00,71.6,63.0,30.09,SSE,166,0.0,-999.0,73,-99.99,,,0.00,weatherlink.com 1.10,2013-04-08 01:58:00,
2013-04-07 22:12:00,71.3,62.0,30.09,ESE,113,0.0,-999.0,73,-99.99,,,0.00,weatherlink.com 1.10,2013-04-08 02:12:00,
2013-04-07 22:27:00,71.1,62.0,30.09,ESE,119,0.0,-999.0,74,-99.99,,,0.00,weatherlink.com 1.10,2013-04-08 02:27:00,
2013-04-07 22:42:00,70.8,63.0,30.09,East,95,0.0,-999.0,75,-99.99,,,0.00,weatherlink.com 1.10,2013-04-08 02:42:00,
2013-04-07 22:57:00,70.2,62.0,30.09,East,98,0.0,-999.0,76,-99.99,,,0.00,weatherlink.com 1.10,2013-04-08 02:57:00,
2013-04-07 23:12:00,69.9,62.0,30.09,East,101,0.0,-999.0,77,-99.99,,,0.00,weatherlink.com 1.10,2013-04-08 03:12:00,
2013-04-07 23:57:00,69.3,62.0,30.09,SE,137,0.0,-999.0,78,-99.99,,,0.00,weatherlink.com 1.10,2013-04-08 03:57:00,